Weather observations for the past three days for
Shungnak Airport
Metric (Imperial)
Date Time (akdt) Wind (kph) Vis. (km) Weather Sky Cond. Temperature (ºC) Relative Humidity Wind Chill (°C) Heat Index (°C) Pressure Precipitation (cm)
Air Dwpt 6 hour altimeter (cm) sea level (mb) 1 hr 3 hr 6 hr
Max. Min.
21 08:56 S 6 16.09 A Few Clouds FEW065 15 6.7 58% 76.12 1015.3
21 07:56 Calm 16.09 Fair CLR 12.8 7.2 69% 76.12 1015.2
21 06:56 Calm 16.09 Fair CLR 11.1 6.7 75% 76.1 1014.8
21 05:56 Calm 16.09 Fair CLR 10 7.8 86% 76.1 1014.8
21 04:56 Calm 16.09 Fair CLR 10.6 7.2 80% 76.07 1014.5
21 03:56 SW 7 16.09 Fair CLR 11.1 6.7 21.7 11.1 75% 76.05 1014.3
21 02:56 W 9 16.09 A Few Clouds FEW070 12.2 6.7 69% 76.02 1014.0
21 01:56 SW 11 16.09 Fair CLR 13.3 7.8 70% 75.97 1013.2
21 00:56 W 7 16.09 Fair CLR 16.7 7.2 54% 75.95 1013.0
20 23:56 NW 9 16.09 Fair CLR 17.2 8.3 56% 75.97 1013.2
20 22:56 NW 13 16.09 A Few Clouds FEW085 19.4 8.3 49% 75.95 1012.9
20 21:56 W 7 16.09 Mostly Cloudy BKN090 21.7 7.8 23.3 18.9 41% 75.95 1012.8
20 20:56 Calm 16.09 Partly Cloudy SCT085 21.1 7.2 41% 75.97 1013.1
20 19:56 SE 6 16.09 Fair CLR 20.6 9.4 49% 75.97 1013.4
20 18:56 E 9 16.09 Fair CLR 19.4 9.4 53% 76.02 1014.0
20 17:56 E 22 G 31 16.09 Partly Cloudy SCT070 19.4 9.4 53% 76.07 1014.4
20 16:56 Vrbl 9 16.09 Fair CLR 22.2 7.8 40% 76.05 1014.4
20 15:56 Vrbl 11 16.09 Fair CLR 21.7 7.8 22.2 15.6 41% 76.07 1014.7
20 14:56 W 13 16.09 Fair CLR 20.6 9.4 49% 76.12 1015.2
20 13:56 W 13 16.09 Fair CLR 19.4 10 55% 76.2 1016.3
20 12:56 SW 7 16.09 Partly Cloudy SCT120 17.8 9.4 58% 76.23 1016.7
20 11:56 Vrbl 9 16.09 A Few Clouds FEW120 16.7 10.6 67% 76.23 1016.7
20 10:56 Vrbl 9 16.09 Partly Cloudy SCT120 16.7 10 65% 76.28 1017.2
20 09:56 W 9 16.09 A Few Clouds FEW120 15.6 8.9 15.6 11.7 65% 76.28 1017.2
20 08:56 W 9 16.09 Mostly Cloudy BKN120 14.4 9.4 72% 76.28 1017.2
20 07:56 Vrbl 9 16.09 Overcast BKN090 OVC110 13.9 10 78% 76.28 1017.3
20 06:56 W 6 16.09 Overcast OVC100 12.8 10 83% 76.28 1017.2
20 05:56 W 6 16.09 Overcast BKN085 OVC110 12.8 9.4 80% 76.25 1017.1
20 04:56 SW 9 16.09 Overcast OVC100 13.3 9.4 77% 76.25 1016.9
20 03:56 W 7 16.09 A Few Clouds FEW120 12.2 8.9 20 12.2 80% 76.2 1016.4
20 02:56 W 9 16.09 Fair CLR 12.8 8.3 74% 76.23 1016.6
20 01:56 W 9 16.09 Fair CLR 13.9 8.9 72% 76.23 1016.5
20 00:56 SW 11 16.09 Fair CLR 15 9.4 69% 76.2 1016.2
19 23:56 W 11 16.09 Partly Cloudy SCT080 16.1 8.3 60% 76.17 1016.0
19 22:56 W 7 16.09 A Few Clouds FEW085 18.9 7.8 49% 76.15 1015.6
19 21:56 W 11 16.09 A Few Clouds FEW090 20 7.2 22.2 19.4 44% 76.12 1015.3
19 20:56 W 17 G 26 16.09 A Few Clouds FEW090 21.1 6.7 39% 76.1 1014.9
19 19:56 W 15 G 30 16.09 Fair CLR 21.1 6.1 38% 76.1 1014.9
19 18:56 W 22 16.09 A Few Clouds FEW060 21.7 6.7 38% 76.1 1014.9
19 17:56 Vrbl 11 16.09 Fair CLR 22.2 6.7 37% 76.1 1015.0
19 16:56 Vrbl 11 16.09 Fair CLR 21.7 7.2 39% 76.12 1015.1
19 15:56 W 15 16.09 A Few Clouds FEW050 21.1 8.3 21.7 15 44% 76.12 1015.4
19 14:56 N 7 16.09 Fair CLR 20 9.4 51% 76.15 1015.6
19 13:56 Vrbl 6 16.09 Fair CLR 20 8.9 49% 76.17 1016.0
19 12:56 Vrbl 6 16.09 A Few Clouds FEW031 18.9 10.6 59% 76.17 1016.1
19 11:56 W 7 16.09 Mostly Cloudy BKN095 17.2 10.6 65% 76.17 1016.0
19 10:56 W 15 16.09 Overcast OVC120 15.6 10.6 72% 76.15 1015.7
19 09:56 Vrbl 7 16.09 Overcast OVC110 15 11.1 15.6 11.7 78% 76.12 1015.3
19 08:56 Vrbl 7 16.09 Partly Cloudy SCT100 15.6 10 70% 76.1 1015.1
19 07:56 SE 13 16.09 Fair CLR 14.4 9.4 72% 76.07 1014.7
19 06:56 Calm 16.09 A Few Clouds FEW055 12.8 9.4 80% 76.05 1014.4
19 05:56 Calm 16.09 Fair CLR 11.7 9.4 86% 76.02 1013.9
19 04:56 S 7 16.09 Fair CLR 12.8 9.4 80% 76 1013.7
19 03:56 SE 13 16.09 Fair CLR 12.8 9.4 16.1 12.2 80% 75.97 1013.2
19 02:56 NE 15 16.09 Mostly Cloudy BKN110 13.3 9.4 77% 75.92 1012.6
19 01:56 E 11 16.09 Mostly Cloudy BKN080 BKN100 13.9 10 78% 75.95 1012.7
19 00:56 E 13 16.09 Mostly Cloudy BKN100 BKN120 15 9.4 69% 75.87 1011.7
18 23:56 E 13 16.09 Fair CLR 16.1 10.6 70% 75.84 1011.5
18 22:56 SE 11 16.09 Fair CLR 16.1 11.1 72% 75.79 1010.9
18 21:56 E 19 16.09 Fair CLR 16.1 11.7 20 15.6 75% 75.74 1010.3 0.03
18 20:56 E 17 16.09 Mostly Cloudy BKN085 BKN100 16.1 12.2 78% 75.77 1010.5 0.03
18 19:56 SE 9 16.09 Light Rain FEW050 OVC080 17.8 10.6 63% 75.79 1010.8
18 18:56 SE 15 16.09 Mostly Cloudy FEW041 BKN110 19.4 9.4 53% 75.74 1010.3
18 17:56 SE 13 G 30 16.09 Mostly Cloudy BKN042 19.4 9.4 53% 75.69 1009.6
18 16:56 E 20 G 26 16.09 Partly Cloudy SCT070 18.9 10 56% 75.72 1010.0
18 15:56 SE 20 16.09 A Few Clouds FEW036 18.9 10 20 11.7 56% 75.72 1009.8
18 14:56 E 22 G 33 16.09 Partly Cloudy SCT047 17.8 11.7 68% 75.74 1010.1
18 13:56 E 28 16.09 Mostly Cloudy SCT065 BKN100 16.7 10.6 67% 75.72 1009.9
18 12:56 SE 20 G 31 16.09 Overcast OVC065 16.7 8.9 60% 75.74 1010.0
18 11:56 E 19 16.09 Overcast BKN070 OVC090 15.6 7.2 58% 75.74 1010.1
18 10:56 E 15 16.09 Mostly Cloudy FEW060 BKN090 13.3 7.8 70% 75.77 1010.5
18 09:56 E 6 16.09 Overcast OVC080 11.7 8.3 11.7 8.3 80% 75.77 1010.6
Date Time (akdt) Wind (kph) Vis. (km) Weather Sky Cond. Air Dwpt Max. Min. Relative Humidity Wind Chill (°C) Heat Index (°C) altimeter (cm) sea level (mb) 1 hr 3 hr 6 hr
6 hour
Temperature (ºC) Pressure Precipitation (cm)